Temperature
5 6 6 6 6 6 6 5 5 5 5 7 6 6 7 7 8 7 7 7 6 6 6 6 5 5 5 4 4 4 4 3 3 3 3 3 3 2 2 2 2 2 2 2
4 5 5 5 6 6 6 6 6 6 6 7 7 7 7 7 7 7 7 7 7 6 6 6 5 5 5 4 4 4 3 3 3 3 2 2 2 2 2 2 1 1 1 1
3 4 5 5 6 6 5 5 6 6 6 6 6 6 7 8 8 7 7 7 7 7 6 6 6 5 5 4 4 4 3 3 3 2 2 2 2 2 1 1 1 1 1 0
3 4 5 7 7 7 6 6 6 6 6 6 6 8 8 8 8 8 8 7 7 7 6 6 6 5 5 4 4 3 3 3 3 2 2 2 1 1 1 1 0 0 -0 -0
4 4 4 6 7 7 7 7 6 6 6 6 7 7 7 8 8 8 8 7 7 7 6 6 5 5 4 4 4 3 3 3 2 2 2 1 1 1 0 -0 -0 -0 -1 -1
3 4 5 7 8 8 8 7 7 6 6 6 6 5 6 8 8 7 7 7 7 6 6 6 5 5 4 4 3 3 3 3 2 2 1 1 1 0 -0 -1 -1 -1 -1 -2
3 4 4 6 7 7 7 8 8 8 7 7 6 7 8 8 7 7 7 7 6 6 6 5 5 4 4 4 3 3 2 2 2 1 1 0 0 -0 -1 -1 -1 -2 -2 -2
3 3 4 6 6 6 7 8 9 8 8 8 8 8 7 7 7 7 6 6 6 6 5 5 4 4 4 3 3 2 2 2 1 1 0 -0 -0 -1 -1 -2 -2 -2 -2 -3
4 5 7 7 8 9 9 8 9 8 8 8 7 7 7 7 7 6 6 6 5 5 5 5 4 4 3 3 2 2 2 1 1 0 -0 -0 -1 -1 -2 -2 -2 -3 -3 -3
3 4 5 7 8 8 8 8 8 8 7 7 7 7 7 6 6 6 5 5 5 5 4 4 4 3 3 2 2 1 1 1 0 -0 -1 -1 -1 -2 -2 -2 -3 -3 -4 -4
3 4 5 7 8 8 8 8 7 7 7 7 6 6 6 6 6 5 5 5 4 4 4 4 4 3 3 2 2 1 1 0 0 -1 -1 -1 -2 -2 -2 -3 -4 -4 -4 -5
5 6 5 7 8 7 7 7 7 6 6 6 6 6 6 5 5 5 5 5 4 4 4 4 3 3 2 2 1 1 0 0 -0 -1 -1 -2 -2 -2 -3 -3 -4 -5 -5 -6
7 7 7 7 6 6 6 6 6 6 6 6 5 5 5 5 5 5 4 4 4 4 4 3 3 3 2 1 1 0 -0 -0 -1 -1 -2 -2 -3 -3 -3 -3 -4 -5 -5 -6
6 6 5 5 6 6 5 5 5 5 5 5 5 5 5 5 5 4 4 4 4 3 3 3 2 2 2 1 1 0 -0 -1 -1 -2 -2 -3 -3 -4 -4 -4 -4 -4 -5 -6
5 5 5 5 5 5 5 5 4 5 5 5 4 4 4 4 4 4 4 4 3 3 3 2 2 2 1 1 0 -0 -1 -1 -2 -2 -3 -3 -4 -4 -5 -5 -5 -5 -5 -6
4 4 4 4 4 4 4 4 4 5 4 4 4 4 4 4 4 4 3 3 3 3 3 2 2 1 1 0 -0 -1 -1 -2 -2 -3 -3 -4 -4 -5 -5 -5 -6 -6 -6 -6
3 3 4 4 4 4 4 4 4 4 4 4 4 3 3 3 3 3 3 3 2 2 2 2 1 1 0 -0 -1 -1 -2 -2 -3 -3 -4 -4 -5 -5 -5 -6 -6 -6 -7 -7
3 4 4 3 3 4 4 4 4 4 4 4 3 3 3 3 3 3 3 2 2 2 2 1 1 0 -0 -1 -1 -2 -2 -3 -3 -4 -4 -5 -5 -5 -6 -6 -7 -7 -7 -7
4 4 4 4 4 4 4 4 4 4 3 3 3 3 3 3 2 2 2 2 2 1 1 1 0 -0 -1 -1 -2 -2 -3 -3 -4 -4 -5 -5 -5 -6 -6 -7 -7 -7 -7 -8
4 4 4 4 4 4 4 4 3 3 3 3 2 2 2 2 2 2 1 1 1 1 1 0 -0 -1 -1 -2 -2 -2 -3 -3 -4 -4 -5 -5 -6 -6 -7 -7 -7 -7 -8 -8
4 4 4 4 4 4 4 3 3 3 3 2 2 2 2 2 1 1 1 1 1 0 0 -0 -1 -1 -1 -2 -2 -3 -3 -4 -4 -5 -5 -6 -6 -6 -7 -7 -7 -8 -8 -8
4 4 4 4 4 4 3 3 3 3 3 2 2 2 1 1 1 1 1 1 0 -0 -0 -1 -1 -1 -2 -2 -3 -3 -4 -4 -5 -5 -5 -6 -6 -6 -7 -7 -8 -8 -8 -8
3 3 3 3 3 3 3 3 2 2 2 2 2 1 1 1 0 0 0 0 -0 -1 -1 -1 -2 -2 -3 -3 -3 -4 -4 -4 -5 -5 -6 -6 -6 -7 -7 -7 -8 -8 -8 -8
3 3 3 3 2 2 2 2 2 2 2 1 1 1 1 0 0 0 -0 -0 -1 -1 -1 -2 -2 -3 -3 -3 -4 -4 -4 -5 -5 -5 -6 -6 -7 -7 -7 -8 -8 -8 -8 -9
2 2 2 2 2 2 2 2 1 1 1 1 1 1 0 0 0 -0 -1 -1 -1 -1 -2 -2 -3 -3 -3 -4 -4 -4 -5 -5 -5 -6 -6 -6 -7 -7 -7 -8 -8 -8 -9 -9
2 2 1 1 1 1 1 1 1 1 1 1 1 1 0 -0 -0 -1 -1 -1 -2 -2 -2 -2 -3 -3 -4 -4 -4 -5 -5 -5 -6 -6 -6 -7 -7 -7 -8 -8 -8 -8 -9 -9
1 1 1 1 1 1 1 0 0 0 0 0 0 0 -0 -0 -1 -1 -1 -2 -2 -2 -2 -3 -3 -4 -4 -4 -5 -5 -5 -6 -6 -6 -7 -7 -7 -7 -8 -8 -8 -9 -9 -9
Wind_Speed
8 9 7 9 10 9 11 10 9 9 9 13 9 9 8 7 6 6 6 6 7 7 6 5 5 4 4 3 3 3 3 2 1 1 2 2 3 4 4 5 5 5 5 6
6 6 7 10 13 12 13 11 13 13 15 12 7 6 6 7 7 7 8 8 8 7 7 7 7 6 5 4 4 3 3 2 0 1 1 2 2 3 4 4 4 4 5 5
5 7 7 9 10 10 7 8 10 14 12 6 5 7 8 8 8 9 9 9 8 8 9 9 8 7 7 6 4 4 3 2 1 1 0 1 2 2 3 3 3 4 4 4
4 6 6 7 3 6 8 8 10 9 8 7 8 7 7 7 8 9 8 8 8 7 8 7 6 6 6 5 5 5 3 2 2 1 1 1 1 2 2 2 2 2 3 4
2 5 9 9 5 4 5 7 7 10 9 6 4 2 5 6 6 7 8 7 7 7 6 6 7 6 6 5 5 4 4 3 3 2 2 1 2 2 2 2 2 2 3 3
3 4 6 7 2 1 1 6 5 5 6 4 4 2 6 5 5 5 5 5 5 5 5 6 6 6 6 6 5 6 5 4 3 3 3 3 3 2 2 2 2 3 3 3
7 7 9 8 3 2 2 6 2 4 5 6 7 8 5 4 5 5 5 5 4 5 6 7 7 7 7 6 7 6 4 3 3 3 3 3 2 2 2 2 2 3 4 4
6 7 10 5 5 6 8 3 3 4 5 7 8 7 5 5 5 5 4 4 4 5 5 5 6 7 7 7 6 4 4 4 3 3 2 2 2 2 2 2 2 3 3 4
11 11 6 5 8 7 4 5 5 5 6 6 6 6 6 5 6 5 6 5 5 5 5 4 6 7 8 7 5 5 5 4 3 3 2 2 2 2 2 2 2 3 3 4
7 11 10 9 8 8 7 7 7 6 6 6 7 8 7 6 6 6 6 5 5 5 6 6 6 7 7 5 6 6 5 4 3 3 2 2 2 2 2 2 3 4 4 4
9 10 8 7 7 7 6 6 6 6 6 8 8 8 7 7 7 7 6 5 6 7 8 8 6 6 6 6 6 6 5 5 4 3 3 3 2 3 3 4 4 4 4 4
11 9 7 8 6 5 6 8 8 7 7 7 8 9 8 8 7 7 6 6 6 7 7 7 6 6 6 6 7 7 5 5 4 3 3 2 2 3 5 5 7 8 8 7
12 10 9 10 8 7 8 9 8 8 8 8 7 8 8 7 6 6 6 7 8 8 8 7 6 6 6 6 7 7 6 5 4 3 3 3 2 2 4 5 6 7 8 9
9 7 9 8 8 8 8 8 7 7 7 7 7 6 6 6 6 7 8 8 7 6 6 6 7 7 6 6 7 7 6 6 5 4 3 3 3 3 3 4 5 5 6 9
9 8 9 9 8 8 6 5 6 7 6 6 5 6 6 7 7 8 7 5 5 6 6 6 7 7 5 6 7 7 6 4 4 3 3 3 3 3 3 4 5 5 5 6
8 8 8 9 10 9 7 7 7 8 7 7 7 7 7 7 7 6 5 5 6 7 7 7 8 6 6 6 7 5 5 7 5 4 3 3 3 3 3 4 4 5 5 5
8 8 8 9 9 9 8 8 8 8 7 8 8 7 6 5 5 6 6 6 7 7 7 7 7 6 6 7 7 5 4 5 6 4 4 4 3 4 4 4 4 5 5 7
10 10 9 9 9 9 9 8 8 8 8 8 7 6 6 7 8 8 6 4 3 4 6 7 6 6 6 7 6 5 5 4 4 4 4 4 3 3 3 4 5 6 5 7
8 9 9 9 9 8 8 8 8 7 7 6 6 7 8 8 7 6 5 5 6 7 6 6 9 8 7 8 7 5 5 5 4 4 4 5 4 3 3 4 5 5 5 6
6 6 7 8 7 6 8 8 7 7 7 6 6 6 7 7 6 6 6 7 8 6 5 6 7 7 7 7 8 5 6 6 5 4 4 4 4 4 4 5 5 5 5 5
7 7 7 7 7 8 8 7 7 8 7 6 7 8 8 7 5 5 5 7 6 6 7 9 7 6 6 7 8 5 6 6 5 5 5 4 4 4 4 5 5 5 5 5
7 7 8 8 7 8 7 6 7 7 7 7 7 6 6 7 6 6 6 7 6 7 6 5 5 8 9 9 5 6 6 6 5 5 5 4 4 4 4 5 5 5 5 5
8 8 8 8 8 8 7 7 7 7 8 8 7 8 8 7 6 6 6 5 5 8 6 6 8 12 12 7 5 6 6 6 6 5 5 5 5 5 4 5 5 5 5 5
9 9 9 8 6 6 9 9 7 6 7 7 7 8 7 6 5 6 5 6 8 9 6 8 12 13 11 6 6 6 6 6 6 5 5 5 4 4 4 4 5 5 5 6
9 9 8 8 8 8 9 8 6 6 6 6 7 7 6 6 6 5 5 6 9 8 5 9 12 12 8 5 6 6 6 6 6 5 5 5 5 4 4 4 5 5 5 5
9 9 9 9 8 7 6 5 6 6 5 6 6 5 5 4 5 5 4 6 7 8 6 5 6 8 6 6 6 7 6 6 6 5 5 5 5 5 4 5 5 5 5 5
9 9 7 7 8 7 7 7 7 8 7 7 7 5 5 5 5 5 5 5 5 5 5 5 5 5 6 6 6 6 5 5 5 5 5 5 4 4 5 5 5 5 5 5
Wind_Direction
255 258 250 246 248 226 217 216 225 244 246 258 246 244 248 245 239 227 229 227 220 218 216 211 207 204 199 190 180 161 140 124 88 28 35 32 26 20 21 24 22 17 15 10
286 269 263 262 251 234 231 229 237 254 268 260 249 236 240 242 233 228 230 228 225 221 214 209 206 202 195 192 185 165 156 166 160 68 47 29 17 15 17 14 9 12 9 2
285 306 316 274 241 210 208 212 208 234 244 249 248 241 236 233 228 227 229 226 222 220 215 210 204 195 193 194 178 165 169 174 172 152 52 345 1 10 360 351 355 356 350 350
294 338 271 246 246 197 215 238 221 231 242 230 232 241 239 224 222 230 231 227 224 218 214 208 194 186 184 179 173 174 180 191 196 191 240 300 332 328 319 315 325 323 326 330
275 293 281 291 268 199 205 268 228 229 246 246 246 303 281 236 217 224 227 224 221 216 207 193 187 181 172 178 177 181 194 202 204 198 218 253 279 290 291 299 311 310 316 325
221 260 260 258 273 165 105 282 252 207 221 214 150 257 265 247 236 239 235 223 216 202 184 184 189 170 169 184 187 202 208 204 200 197 208 233 253 268 276 285 296 313 320 317
222 245 267 260 241 134 197 256 245 193 204 194 204 225 248 259 244 238 233 228 206 187 188 194 180 166 180 192 208 212 196 188 191 200 215 228 240 250 273 291 308 313 311 308
192 218 254 234 158 191 224 250 232 223 220 222 236 252 259 252 245 239 232 222 199 191 202 195 176 173 189 211 216 192 179 184 197 211 222 221 227 262 273 281 298 302 303 303
201 220 240 208 212 234 220 233 242 236 240 232 240 247 249 247 243 238 231 220 206 197 201 203 192 185 200 216 193 178 180 193 204 210 221 219 218 242 262 260 271 288 292 300
248 258 255 255 256 263 246 238 245 242 241 230 236 246 251 249 243 238 234 223 207 195 203 214 206 201 208 201 180 176 188 200 201 203 224 235 234 234 244 255 268 287 295 298
255 270 287 272 246 249 252 249 252 250 238 234 237 248 245 245 243 238 235 224 207 204 212 218 207 208 206 191 176 182 192 198 199 206 216 233 245 242 253 244 247 271 272 277
244 240 234 262 265 258 257 260 258 255 256 247 234 242 244 244 241 236 232 223 215 213 214 215 205 211 208 191 179 181 193 199 202 206 217 229 254 289 287 282 287 287 286 289
246 260 255 266 271 258 255 260 259 251 249 255 250 240 239 244 241 233 230 223 218 216 216 210 206 214 210 190 182 186 196 199 199 203 211 228 246 270 297 306 300 299 299 301
255 266 274 269 267 268 262 261 261 260 255 250 250 251 245 246 243 235 231 227 220 213 210 205 207 218 208 186 184 190 194 201 200 204 209 220 236 252 266 285 301 301 303 307
254 244 254 271 274 275 270 265 266 267 265 264 255 251 245 243 242 240 237 223 204 203 208 203 210 220 196 183 185 190 192 198 199 200 208 219 231 244 255 266 277 290 299 305
270 269 266 267 269 272 269 260 258 262 261 258 260 254 248 243 245 246 232 200 196 212 213 208 216 214 189 184 185 190 199 203 196 197 207 218 229 241 253 264 275 282 288 295
261 269 267 271 272 271 263 253 249 255 258 256 255 256 255 255 253 246 234 217 213 217 212 209 213 200 187 186 185 191 192 201 203 204 210 219 228 239 251 261 270 278 283 292
240 247 253 257 264 269 271 264 256 255 254 254 256 251 246 241 239 239 234 219 216 231 226 211 199 188 188 188 187 186 188 194 197 206 213 221 232 235 248 262 270 278 287 295
256 256 259 259 257 257 261 263 261 257 257 254 248 248 248 243 236 232 218 206 214 234 234 207 195 190 193 197 188 183 186 193 201 207 214 232 240 238 248 260 268 274 282 289
271 269 267 269 265 253 259 266 266 266 261 246 244 249 253 249 231 219 214 224 230 228 211 200 194 194 196 198 191 184 189 195 202 207 212 218 228 239 248 259 267 273 279 283
274 272 270 270 273 265 258 258 259 262 263 246 237 243 249 251 233 215 216 244 247 213 203 201 195 194 193 197 194 187 192 198 203 208 212 219 229 239 247 256 266 273 278 284
270 269 269 269 271 276 271 257 251 255 258 254 246 241 240 244 236 231 230 235 236 211 202 198 196 202 201 199 188 189 195 199 203 207 213 218 225 236 246 254 261 270 275 279
268 265 266 265 264 270 278 268 254 248 248 247 244 238 237 237 226 228 251 232 213 210 205 206 207 209 208 197 188 193 197 200 203 209 215 218 223 231 241 250 256 264 269 275
269 266 263 262 261 265 271 270 258 249 245 247 244 237 233 238 243 233 232 221 217 217 214 212 212 213 207 190 189 196 200 203 206 210 215 220 223 227 234 244 254 261 265 271
265 265 264 260 258 259 258 261 264 260 252 253 249 239 230 224 230 233 218 216 218 217 216 214 214 212 200 186 193 198 202 206 207 207 210 216 220 226 234 240 246 256 264 269
261 260 258 251 250 255 252 247 253 256 250 255 258 244 231 223 218 219 217 217 218 216 210 205 203 204 193 192 197 200 203 212 220 216 211 214 219 225 234 241 249 254 261 266
261 261 262 263 258 245 240 239 243 247 242 240 252 248 230 219 213 212 212 214 213 209 204 197 193 192 193 194 196 199 201 203 205 207 209 213 217 224 231 239 247 254 261 267
Height
1517 1513 1513 1511 1509 1508 1509 1509 1509 1500 1496 1486 1485 1485 1484 1483 1482 1482 1482 1482 1481 1481 1481 1481 1480 1480 1479 1479 1478 1477 1476 1475 1474 1472 1471 1469 1467 1465 1464 1462 1460 1458 1456 1454
1517 1509 1509 1506 1500 1500 1500 1499 1497 1495 1489 1480 1480 1480 1480 1479 1479 1478 1478 1478 1478 1478 1478 1478 1477 1477 1477 1477 1476 1475 1474 1473 1472 1471 1469 1468 1466 1464 1462 1460 1458 1456 1454 1452
1520 1512 1507 1501 1489 1490 1491 1488 1489 1488 1481 1477 1478 1477 1476 1475 1475 1474 1474 1474 1474 1474 1474 1474 1475 1475 1474 1474 1474 1473 1472 1471 1470 1469 1467 1466 1464 1462 1460 1458 1456 1454 1452 1450
1522 1516 1509 1489 1480 1481 1483 1480 1479 1476 1474 1474 1473 1472 1472 1472 1471 1471 1471 1471 1471 1471 1471 1471 1471 1472 1472 1472 1471 1470 1469 1468 1467 1466 1465 1463 1462 1460 1458 1456 1454 1451 1449 1447
1522 1520 1506 1486 1479 1478 1480 1477 1472 1472 1471 1471 1471 1471 1469 1469 1468 1468 1468 1468 1468 1468 1468 1468 1468 1468 1468 1468 1468 1467 1466 1465 1464 1463 1462 1460 1458 1457 1455 1453 1451 1449 1446 1444
1520 1515 1502 1481 1476 1475 1477 1476 1468 1468 1468 1468 1470 1473 1468 1465 1465 1465 1465 1464 1464 1464 1464 1464 1465 1465 1465 1464 1464 1463 1463 1462 1461 1460 1458 1457 1455 1453 1452 1450 1448 1446 1443 1441
1517 1513 1496 1478 1475 1476 1481 1474 1467 1465 1465 1466 1466 1465 1464 1462 1462 1461 1461 1460 1460 1460 1460 1460 1461 1461 1461 1460 1460 1460 1459 1458 1457 1456 1455 1453 1451 1450 1448 1446 1444 1442 1440 1438
1511 1509 1494 1472 1473 1475 1470 1465 1464 1464 1463 1463 1461 1461 1460 1459 1458 1457 1457 1456 1456 1456 1456 1457 1457 1457 1456 1456 1457 1456 1455 1454 1453 1452 1451 1449 1448 1446 1444 1442 1440 1438 1436 1434
1492 1482 1469 1467 1466 1464 1464 1463 1462 1461 1460 1460 1458 1457 1456 1455 1455 1454 1453 1452 1452 1452 1452 1453 1453 1453 1453 1453 1453 1452 1451 1450 1449 1448 1447 1445 1444 1442 1441 1439 1436 1434 1432 1430
1482 1469 1464 1463 1462 1461 1460 1459 1458 1458 1457 1456 1454 1453 1452 1451 1450 1449 1449 1448 1448 1448 1447 1447 1448 1448 1448 1448 1448 1447 1446 1446 1445 1444 1443 1441 1440 1438 1436 1434 1432 1430 1428 1426
1474 1464 1461 1457 1457 1457 1456 1455 1454 1453 1452 1451 1450 1448 1447 1446 1445 1444 1444 1443 1443 1443 1443 1443 1443 1443 1443 1443 1443 1442 1442 1441 1440 1439 1438 1437 1436 1434 1432 1431 1429 1427 1424 1422
1463 1457 1457 1454 1453 1453 1452 1451 1449 1448 1447 1446 1445 1443 1442 1441 1440 1439 1439 1438 1438 1438 1438 1438 1438 1438 1438 1438 1438 1437 1437 1436 1435 1435 1434 1433 1431 1430 1428 1427 1425 1423 1420 1418
1453 1452 1452 1449 1449 1448 1447 1445 1444 1443 1441 1440 1439 1438 1437 1435 1435 1434 1434 1433 1433 1433 1433 1433 1433 1433 1433 1433 1433 1432 1432 1431 1431 1430 1429 1428 1427 1425 1424 1422 1421 1419 1416 1414
1450 1449 1446 1444 1443 1442 1441 1439 1438 1437 1435 1434 1433 1432 1431 1430 1429 1428 1428 1428 1428 1428 1428 1428 1428 1428 1428 1428 1427 1427 1427 1426 1426 1425 1425 1423 1422 1421 1419 1417 1416 1414 1412 1410
1444 1443 1441 1439 1437 1436 1435 1433 1432 1430 1429 1428 1427 1426 1425 1424 1423 1423 1423 1423 1422 1422 1422 1422 1422 1422 1423 1423 1422 1422 1422 1421 1421 1421 1420 1419 1418 1417 1415 1413 1411 1409 1407 1405
1438 1436 1435 1433 1431 1430 1429 1427 1426 1425 1424 1423 1422 1421 1420 1419 1418 1417 1417 1417 1417 1416 1416 1417 1417 1417 1417 1417 1417 1417 1417 1417 1416 1416 1415 1414 1413 1412 1410 1409 1407 1405 1403 1400
1432 1429 1428 1427 1426 1424 1423 1422 1421 1420 1418 1417 1416 1416 1414 1413 1412 1412 1412 1412 1411 1411 1411 1411 1411 1412 1412 1412 1412 1412 1412 1412 1411 1411 1410 1409 1408 1407 1406 1404 1403 1401 1399 1396
1426 1425 1425 1423 1421 1420 1418 1417 1416 1415 1413 1412 1411 1410 1409 1408 1407 1406 1406 1406 1405 1405 1406 1406 1406 1406 1406 1407 1407 1406 1406 1406 1406 1405 1405 1404 1403 1402 1401 1400 1398 1396 1394 1392
1422 1421 1419 1418 1417 1415 1414 1412 1411 1410 1408 1407 1406 1404 1403 1402 1402 1401 1401 1400 1400 1399 1400 1400 1400 1401 1401 1401 1401 1401 1401 1401 1401 1400 1400 1400 1399 1398 1397 1395 1394 1392 1390 1387
1418 1417 1416 1414 1413 1411 1410 1408 1406 1405 1403 1402 1400 1399 1398 1397 1396 1396 1395 1394 1394 1394 1394 1394 1394 1395 1395 1395 1395 1395 1395 1396 1395 1395 1395 1394 1394 1393 1392 1391 1389 1387 1385 1383
1415 1414 1412 1410 1409 1407 1406 1404 1402 1400 1398 1397 1395 1393 1392 1391 1391 1390 1389 1388 1389 1389 1389 1389 1389 1389 1390 1390 1390 1390 1390 1390 1390 1390 1390 1389 1389 1388 1387 1386 1384 1383 1381 1379
1412 1410 1408 1406 1404 1402 1401 1399 1397 1395 1393 1391 1390 1388 1387 1385 1385 1384 1383 1383 1383 1383 1383 1383 1383 1383 1384 1384 1384 1384 1385 1385 1385 1385 1385 1384 1384 1383 1382 1381 1380 1378 1376 1374
1408 1406 1404 1402 1400 1397 1395 1394 1392 1389 1387 1385 1384 1382 1381 1380 1379 1378 1377 1378 1378 1377 1377 1377 1377 1378 1378 1378 1378 1379 1379 1380 1380 1380 1380 1380 1379 1378 1378 1376 1375 1373 1372 1370
1403 1400 1398 1396 1394 1391 1389 1387 1385 1383 1381 1380 1378 1377 1376 1374 1373 1373 1373 1372 1372 1372 1371 1371 1371 1372 1372 1372 1373 1373 1374 1374 1375 1375 1375 1375 1374 1374 1373 1372 1370 1369 1367 1365
1396 1394 1392 1389 1387 1385 1383 1381 1379 1377 1375 1373 1372 1371 1370 1369 1368 1367 1367 1366 1366 1366 1366 1366 1366 1366 1366 1367 1367 1368 1369 1369 1370 1370 1370 1370 1369 1369 1368 1367 1366 1364 1363 1361
1388 1386 1384 1381 1379 1377 1375 1374 1371 1370 1368 1366 1365 1364 1364 1363 1362 1361 1361 1361 1360 1360 1360 1360 1360 1360 1360 1361 1362 1363 1363 1364 1364 1365 1365 1365 1365 1364 1363 1362 1361 1360 1359 1357
1379 1377 1374 1372 1370 1369 1367 1366 1364 1362 1361 1360 1358 1358 1357 1357 1356 1355 1355 1355 1355 1354 1354 1354 1355 1355 1355 1356 1356 1357 1358 1359 1359 1360 1360 1360 1360 1359 1359 1358 1357 1356 1354 1352